TimeMST,TemperatureF,Dew PointF,Humidity,Sea Level PressureIn,VisibilityMPH,Wind Direction,Wind SpeedMPH,Gust SpeedMPH,PrecipitationIn,Events,Conditions,WindDirDegrees,DateUTC
12:53 AM,32.0,21.0,64,30.16,10.0,SW,10.4,-,N/A,,Clear,230,2013-12-28 07:53:00
1:53 AM,30.0,21.0,69,30.15,10.0,SW,9.2,-,N/A,,Clear,220,2013-12-28 08:53:00
2:53 AM,30.0,21.0,69,30.14,10.0,SW,9.2,-,N/A,,Clear,230,2013-12-28 09:53:00
3:53 AM,25.0,19.9,81,30.16,10.0,WSW,9.2,-,N/A,,Clear,250,2013-12-28 10:53:00
4:53 AM,24.1,19.0,81,30.19,10.0,SW,10.4,-,N/A,,Clear,230,2013-12-28 11:53:00
5:53 AM,27.0,19.9,75,30.17,10.0,South,17.3,-,N/A,,Clear,190,2013-12-28 12:53:00
6:53 AM,30.0,19.0,64,30.19,10.0,SSW,12.7,-,N/A,,Clear,200,2013-12-28 13:53:00
7:53 AM,30.9,21.0,67,30.21,10.0,SW,12.7,-,N/A,,Clear,230,2013-12-28 14:53:00
8:53 AM,32.0,21.9,66,30.23,10.0,WSW,13.8,23.0,N/A,,Overcast,240,2013-12-28 15:53:00
9:53 AM,33.1,21.9,64,30.22,10.0,West,17.3,25.3,N/A,,Partly Cloudy,260,2013-12-28 16:53:00
10:53 AM,36.0,23.0,59,30.24,10.0,West,20.7,31.1,N/A,,Clear,260,2013-12-28 17:53:00
11:53 AM,36.0,23.0,59,30.25,10.0,West,21.9,27.6,N/A,,Clear,280,2013-12-28 18:53:00
12:53 PM,37.0,23.0,57,30.23,10.0,WNW,17.3,25.3,N/A,,Clear,290,2013-12-28 19:53:00
1:53 PM,37.0,24.1,59,30.24,10.0,West,18.4,25.3,N/A,,Clear,280,2013-12-28 20:53:00
2:53 PM,37.9,25.0,60,30.25,10.0,WSW,13.8,-,N/A,,Partly Cloudy,250,2013-12-28 21:53:00
3:53 PM,37.0,24.1,59,30.27,10.0,WSW,18.4,23.0,N/A,,Clear,250,2013-12-28 22:53:00
4:53 PM,34.0,24.1,67,30.30,10.0,WSW,10.4,-,N/A,,Clear,240,2013-12-28 23:53:00
5:53 PM,33.1,24.1,70,30.31,10.0,SW,12.7,-,N/A,,Clear,230,2013-12-29 00:53:00
6:53 PM,32.0,23.0,69,30.32,10.0,SW,12.7,-,N/A,,Clear,220,2013-12-29 01:53:00
7:53 PM,30.0,21.9,72,30.33,10.0,SSW,10.4,-,N/A,,Clear,200,2013-12-29 02:53:00
8:53 PM,30.9,21.9,69,30.33,10.0,SW,10.4,-,N/A,,Clear,220,2013-12-29 03:53:00
9:53 PM,30.0,21.0,69,30.34,10.0,SSW,10.4,-,N/A,,Clear,210,2013-12-29 04:53:00
10:53 PM,28.9,21.0,72,30.35,10.0,SW,13.8,-,N/A,,Clear,220,2013-12-29 05:53:00
11:53 PM,28.9,19.9,69,30.36,10.0,SW,12.7,-,N/A,,Clear,220,2013-12-29 06:53:00